Weather in Hvardiiske

Ukraine / Dnipropetrovsk Region     48°44′04″N   35°19′44″E
temp.,
°C
wind,
m/s
gust,
m/s
humid.,
%
clouds,
%
prec.,
mm/h
press.,
hPa
HPBL,
m
7 may, fri
fri700:00+10n4892100 0.7 1012321
03:00+8nw3596100 1.6 1014131
06:00+8nnw25950 0.0 1014130
09:00+13wnw22715 0.0 1016623
12:00+17wsw224479 0.0 10151623
15:00+18sw3439100 0.0 10151939
18:00+18sse35476 0.0 1014676
21:00+13se486199 0.0 1013113
8 may, sat
sat800:00+13sse51361100 0.0 1012355
03:00+13s71476100 0.1 1012550
06:00+13s61476100 0.2 1010537
09:00+15ssw91472100 0.2 1009886
12:00+14sw71182100 0.5 1010766
15:00+13wnw5887100 5.6 1010586
18:00+11nw71182100 2.9 1012674
21:00+9wnw41081100 3.1 1013344
9 may, sun
sun900:00+6nw71280100 0.0 1015721
03:00+6nnw7128099 0.0 1016948
06:00+5nw61288100 0.0 1018668
09:00+9nnw812615 0.0 10191297
12:00+12nnw912435 0.0 10201910
15:00+13nnw9123934 0.0 10212611
18:00+13nnw710495 0.0 10222107
21:00+7nw410640 0.0 1025200
10 may, mon
mon1000:00+6nw411715 0.0 1025208
03:00+5nnw410745 0.0 1026198
06:00+5nnw511750 0.0 1027248
09:00+11n7105313 0.0 10261220
12:00+14nnw81142100 0.0 10241960
15:00+15n91243100 0.0 10222020
18:00+12n81457100 0.0 10211413
21:00+11n91663100 0.2 1020919
11 may, tue
tue1100:00+11n81669100 0.1 1018622
03:00+11n91776100 0.1 1018575
06:00+11n7158496 0.0 1017476
09:00+15nne9157420 0.0 1016600
12:00+14ene91482100 0.3 10161157
15:00+14ene9115734 0.3 10181729
18:00+12ene1014689 0.1 10191496
21:00+8e7148281 0.1 1021841